| time (UTC) | temp C | wind direction | speed KPH | gust KPH | rain 1hr cm | rain 24hr cm | rain mn cm | humidity % | barometer mb |
| 20260901163046 | 35 | 261 | 3.2 | 14.5 | 0.00 | 0.00 | 0.00 | 49 | 1017.7 |
| 20260901161546 | 34 | 252 | 8.0 | 17.7 | 0.00 | 0.00 | 0.00 | 48 | 1017.8 |
| 20260901160059 | 34 | 256 | 3.2 | 17.7 | 0.00 | 0.00 | 0.00 | 49 | 1017.7 |
| 20260901154551 | 33 | 320 | 3.2 | 19.3 | 0.00 | 0.00 | 0.00 | 52 | 1017.9 |
| 20260901153053 | 32 | 252 | 11.3 | 19.3 | 0.00 | 0.00 | 0.00 | 52 | 1017.9 |
| 20260901151545 | 32 | 239 | 6.4 | 17.7 | 0.00 | 0.00 | 0.00 | 54 | 1017.9 |
| 20260901150104 | 31 | 298 | 6.4 | 16.1 | 0.00 | 0.00 | 0.00 | 57 | 1017.8 |
| 20260901144545 | 31 | 246 | 6.4 | 17.7 | 0.00 | 0.00 | 0.00 | 59 | 1017.8 |
| 20260901143112 | 30 | 267 | 8.0 | 16.1 | 0.00 | 0.00 | 0.00 | 60 | 1017.8 |
| 20260901141549 | 29 | 249 | 8.0 | 16.1 | 0.00 | 0.00 | 0.00 | 63 | 1017.9 |
| 20260901140047 | 28 | 257 | 8.0 | 17.7 | 0.00 | 0.00 | 0.00 | 64 | 1018.2 |
| 20260901134618 | 27 | 268 | 3.2 | 12.9 | 0.00 | 0.00 | 0.00 | 68 | 1018.0 |
| 20260901133057 | 27 | 238 | 4.8 | 12.9 | 0.00 | 0.00 | 0.00 | 68 | 1017.9 |
| 20260901131559 | 26 | 248 | 3.2 | 12.9 | 0.00 | 0.00 | 0.00 | 70 | 1017.9 |
| 20260901130052 | 26 | 233 | 3.2 | 6.4 | 0.00 | 0.00 | 0.00 | 72 | 1017.8 |
| 20260901124554 | 25 | 242 | 3.2 | 6.4 | 0.00 | 0.00 | 0.00 | 73 | 1017.7 |
| 20260901123046 | 25 | 246 | 1.6 | 4.8 | 0.00 | 0.00 | 0.00 | 74 | 1017.6 |
| 20260901121605 | 24 | 247 | 1.6 | 3.2 | 0.00 | 0.00 | 0.00 | 76 | 1017.4 |
| 20260901120049 | 23 | 247 | 1.6 | 4.8 | 0.00 | 0.00 | 0.00 | 78 | 1017.1 |
| 20260901114601 | 23 | 0 | 1.6 | 6.4 | 0.00 | 0.00 | 0.00 | 78 | 1017.0 |
| 20260901113055 | 23 | 255 | 1.6 | 4.8 | 0.00 | 0.00 | 0.00 | 79 | 1016.8 |
| 20260901111556 | 23 | 0 | 0.0 | 3.2 | 0.00 | 0.00 | 0.00 | 79 | 1016.6 |
| 20260901110054 | 23 | 0 | 0.0 | 3.2 | 0.00 | 0.00 | 0.00 | 79 | 1016.8 |
| 20260901104546 | 23 | 0 | 0.0 | 3.2 | 0.00 | 0.00 | 0.00 | 78 | 1016.7 |
| 20260901103045 | 24 | 262 | 0.0 | 3.2 | 0.00 | 0.00 | 0.00 | 77 | 1016.6 |
| 20260901101555 | 24 | 262 | 1.6 | 4.8 | 0.00 | 0.00 | 0.00 | 77 | 1016.6 |
| 20260901100048 | 24 | 262 | 1.6 | 4.8 | 0.00 | 0.00 | 0.00 | 76 | 1016.5 |
| 20260901094547 | 24 | 262 | 0.0 | 4.8 | 0.00 | 0.00 | 0.00 | 76 | 1016.5 |
| 20260901093045 | 25 | 262 | 3.2 | 6.4 | 0.00 | 0.00 | 0.00 | 75 | 1016.4 |
| 20260901091555 | 25 | 249 | 1.6 | 8.0 | 0.00 | 0.00 | 0.00 | 74 | 1016.2 |
| 20260901090047 | 25 | 262 | 3.2 | 6.4 | 0.00 | 0.00 | 0.00 | 75 | 1016.2 |
| 20260901084544 | 25 | 243 | 1.6 | 11.3 | 0.00 | 0.00 | 0.00 | 75 | 1015.9 |
| 20260901083054 | 25 | 259 | 3.2 | 6.4 | 0.00 | 0.00 | 0.00 | 75 | 1015.8 |
| 20260901081550 | 25 | 235 | 0.0 | 6.4 | 0.00 | 0.00 | 0.00 | 74 | 1015.9 |
| 20260901080049 | 25 | 242 | 3.2 | 6.4 | 0.00 | 0.00 | 0.00 | 74 | 1015.8 |
| 20260901074559 | 25 | 245 | 1.6 | 6.4 | 0.00 | 0.00 | 0.00 | 74 | 1015.9 |
| 20260901073044 | 25 | 0 | 0.0 | 4.8 | 0.00 | 0.00 | 0.00 | 74 | 1015.9 |
| 20260901071550 | 26 | 254 | 0.0 | 4.8 | 0.00 | 0.00 | 0.00 | 73 | 1015.7 |
| 20260901070048 | 26 | 0 | 0.0 | 4.8 | 0.00 | 0.00 | 0.00 | 72 | 1015.8 |
| 20260901064552 | 26 | 256 | 1.6 | 9.7 | 0.00 | 0.00 | 0.00 | 72 | 1015.8 |
| 20260901063054 | 26 | 0 | 0.0 | 4.8 | 0.00 | 0.00 | 0.00 | 71 | 1015.9 |
| 20260901061546 | 27 | 0 | 0.0 | 4.8 | 0.00 | 0.00 | 0.00 | 69 | 1015.8 |
| 20260901060050 | 27 | 0 | 0.0 | 12.9 | 0.00 | 0.00 | 0.00 | 68 | 1015.8 |
| 20260901054546 | 27 | 245 | 1.6 | 12.9 | 0.00 | 0.00 | 0.00 | 67 | 1015.9 |
| 20260901053054 | 27 | 240 | 1.6 | 8.0 | 0.00 | 0.00 | 0.00 | 66 | 1015.8 |
| 20260901051559 | 28 | 250 | 3.2 | 8.0 | 0.00 | 0.00 | 0.00 | 65 | 1015.7 |
| 20260901050054 | 28 | 241 | 0.0 | 8.0 | 0.00 | 0.00 | 0.00 | 65 | 1015.8 |
| 20260901044552 | 28 | 261 | 1.6 | 8.0 | 0.00 | 0.00 | 0.00 | 64 | 1015.9 |
| 20260901043059 | 28 | 218 | 3.2 | 8.0 | 0.00 | 0.00 | 0.00 | 64 | 1015.8 |
| 20260901041546 | 28 | 254 | 3.2 | 9.7 | 0.00 | 0.00 | 0.00 | 64 | 1015.9 |
| 20260901040111 | 28 | 232 | 1.6 | 9.7 | 0.00 | 0.00 | 0.00 | 63 | 1015.9 |
| 20260901034549 | 28 | 232 | 1.6 | 8.0 | 0.00 | 0.00 | 0.00 | 63 | 1016.0 |
| 20260901033056 | 29 | 238 | 4.8 | 16.1 | 0.00 | 0.00 | 0.00 | 62 | 1015.9 |
| 20260901031552 | 29 | 0 | 1.6 | 14.5 | 0.00 | 0.00 | 0.00 | 62 | 1015.7 |
| 20260901030053 | 30 | 231 | 1.6 | 12.9 | 0.00 | 0.00 | 0.00 | 62 | 1015.6 |
| 20260901024549 | 30 | 232 | 4.8 | 14.5 | 0.00 | 0.00 | 0.00 | 61 | 1015.4 |
| 20260901023046 | 30 | 0 | 6.4 | 16.1 | 0.00 | 0.00 | 0.00 | 60 | 1015.3 |
| 20260901021554 | 30 | 248 | 4.8 | 16.1 | 0.00 | 0.00 | 0.00 | 60 | 1015.3 |
| 20260901020056 | 30 | 193 | 6.4 | 16.1 | 0.00 | 0.00 | 0.00 | 59 | 1015.1 |
| 20260901014554 | 31 | 284 | 4.8 | 14.5 | 0.00 | 0.00 | 0.00 | 58 | 1015.1 |
| 20260901013108 | 31 | 232 | 3.2 | 12.9 | 0.00 | 0.00 | 0.00 | 57 | 1014.9 |
| 20260901011551 | 31 | 235 | 3.2 | 8.0 | 0.00 | 0.00 | 0.00 | 57 | 1014.9 |
| 20260901010054 | 32 | 254 | 1.6 | 6.4 | 0.00 | 0.00 | 0.00 | 56 | 1014.8 |
| 20260901004554 | 32 | 244 | 0.0 | 4.8 | 0.00 | 0.00 | 0.00 | 54 | 1014.7 |
| 20260901003054 | 33 | 0 | 0.0 | 6.4 | 0.00 | 0.00 | 0.00 | 54 | 1014.7 |
| 20260901001553 | 33 | 240 | 1.6 | 4.8 | 0.00 | 0.00 | 0.00 | 52 | 1014.6 |
| 20260901000051 | 34 | 0 | 1.6 | 11.3 | 0.00 | 0.00 | 0.00 | 51 | 1014.6 |
| 20260831234553 | 35 | 239 | 3.2 | 14.5 | 0.00 | 0.00 | 0.00 | 49 | 1014.6 |
| 20260831233052 | 35 | 240 | 1.6 | 11.3 | 0.00 | 0.00 | 0.00 | 48 | 1014.8 |
| 20260831231547 | 35 | 275 | 4.8 | 14.5 | 0.00 | 0.00 | 0.00 | 46 | 1014.7 |
| 20260831230054 | 36 | 261 | 6.4 | 16.1 | 0.00 | 0.00 | 0.00 | 46 | 1014.8 |
| 20260831224557 | 36 | 220 | 6.4 | 17.7 | 0.00 | 0.00 | 0.00 | 45 | 1014.6 |
| 20260831223052 | 36 | 269 | 8.0 | 25.7 | 0.00 | 0.00 | 0.00 | 45 | 1014.8 |
| 20260831221603 | 36 | 277 | 9.7 | 24.1 | 0.00 | 0.00 | 0.00 | 45 | 1014.7 |
| 20260831220049 | 36 | 219 | 8.0 | 22.5 | 0.00 | 0.00 | 0.00 | 43 | 1014.7 |
| 20260831214545 | 36 | 249 | 11.3 | 22.5 | 0.00 | 0.00 | 0.00 | 43 | 1014.7 |
| 20260831213052 | 36 | 246 | 8.0 | 19.3 | 0.00 | 0.00 | 0.00 | 42 | 1014.8 |
| 20260831211549 | 36 | 217 | 8.0 | 20.9 | 0.00 | 0.00 | 0.00 | 43 | 1014.7 |
| 20260831210046 | 36 | 204 | 8.0 | 19.3 | 0.00 | 0.00 | 0.00 | 43 | 1014.8 |
| 20260831204544 | 36 | 229 | 8.0 | 17.7 | 0.00 | 0.00 | 0.00 | 43 | 1014.9 |
| 20260831203125 | 36 | 252 | 9.7 | 24.1 | 0.00 | 0.00 | 0.00 | 44 | 1015.1 |
| 20260831201602 | 36 | 229 | 8.0 | 17.7 | 0.00 | 0.00 | 0.00 | 44 | 1015.1 |
| 20260831200133 | 36 | 244 | 9.7 | 20.9 | 0.00 | 0.00 | 0.00 | 45 | 1015.1 |
| 20260831194559 | 36 | 233 | 4.8 | 20.9 | 0.00 | 0.00 | 0.00 | 46 | 1015.2 |
| 20260831193054 | 36 | 213 | 8.0 | 20.9 | 0.00 | 0.00 | 0.00 | 45 | 1015.4 |
| 20260831191554 | 36 | 224 | 6.4 | 22.5 | 0.00 | 0.00 | 0.00 | 45 | 1015.6 |
| 20260831190046 | 36 | 0 | 6.4 | 16.1 | 0.00 | 0.00 | 0.00 | 45 | 1015.7 |
| 20260831184556 | 36 | 261 | 8.0 | 16.1 | 0.00 | 0.00 | 0.00 | 46 | 1015.8 |
| 20260831183051 | 36 | 239 | 4.8 | 20.9 | 0.00 | 0.00 | 0.00 | 41 | 1015.9 |
| 20260831181554 | 36 | 301 | 3.2 | 16.1 | 0.00 | 0.00 | 0.00 | 44 | 1016.1 |
| 20260831180048 | 36 | 268 | 6.4 | 17.7 | 0.00 | 0.00 | 0.00 | 44 | 1016.3 |
| 20260831174553 | 35 | 254 | 8.0 | 19.3 | 0.00 | 0.00 | 0.00 | 45 | 1016.6 |
| 20260831173046 | 35 | 241 | 6.4 | 20.9 | 0.00 | 0.00 | 0.00 | 46 | 1016.7 |
| 20260831171552 | 35 | 240 | 8.0 | 20.9 | 0.00 | 0.00 | 0.00 | 46 | 1016.9 |
| 20260831170056 | 33 | 227 | 9.7 | 22.5 | 0.00 | 0.00 | 0.00 | 48 | 1017.1 |
| 20260831164553 | 33 | 266 | 6.4 | 20.9 | 0.00 | 0.00 | 0.00 | 47 | 1017.3 |